Zurück zum Katalog

IKONOS 2

AktivWissenschaftSSO
NORAD 25919·PAYLOAD·🇺🇸 United States

Gestartet Sep 24, 1999 von Vandenberg Space Force Base

Loading…

Nächste Überflüge (nächste 24 Stunden)

TLE

AktuellSource: Space-Track

Epoche: Sep 14, 2026, 03:48 UTC

1 25919U 99051A   26257.15841115  .00000972  00000-0  88670-4 0  9999
2 25919  98.1193 149.6202 0005155 270.8824  89.1806 14.97593396452234

Verfolge IKONOS 2 in Echtzeit mit AllMySat

Download on the App Store